WZZ873 LFMN-EPGD

Flight info

Callsign WZZ873
Flight time N/A
Altitude 34000
Route BASIP DCT EGHIN DCT ANAKI DCT IDREK DCT LEDKO DCT DIKEM DCT MOBDO/N0442F350 DCT VERDA DCT PINQI DCT ODLIV DCT RASAN DCT DENKO DCT LUXAL L730 KOSEX
Aircraft A321/M-SDE3FGHIRWY/LB1

Departure

Time 2026-05-06 10:58
Airport Nice-Côte d'Azur Airport (LFMN)

Arrival

Time N/A
Airport Gdańsk Lech Wałęsa Airport (EPGD)
Time Latitude Longitude Altitude Speed Heading
2026-05-06 10:32 43.65915 7.20685 21 ft 0 kts 340°
2026-05-06 10:45 43.65892 7.20696 22 ft 4 kts 340°
2026-05-06 10:45 43.65870 7.20707 25 ft 2 kts 340°
2026-05-06 10:45 43.65846 7.20717 22 ft 4 kts 357°
2026-05-06 10:45 43.65821 7.20712 21 ft 4 kts 30°
2026-05-06 10:46 43.65803 7.20692 25 ft 4 kts 45°
2026-05-06 10:46 43.65798 7.20685 25 ft 0 kts 45°
2026-05-06 10:47 43.65798 7.20684 25 ft 0 kts 45°
2026-05-06 10:49 43.65826 7.20723 24 ft 4 kts 45°
2026-05-06 10:49 43.65846 7.20750 21 ft 4 kts 44°
2026-05-06 10:49 43.65868 7.20785 21 ft 5 kts 57°
2026-05-06 10:49 43.65867 7.20835 21 ft 5 kts 121°
2026-05-06 10:50 43.65832 7.20855 21 ft 6 kts 171°
2026-05-06 10:50 43.65794 7.20872 21 ft 6 kts 137°
2026-05-06 10:50 43.65795 7.20927 21 ft 6 kts 65°
2026-05-06 10:50 43.65826 7.20972 21 ft 7 kts 44°
2026-05-06 10:51 43.65863 7.21022 21 ft 8 kts 45°
2026-05-06 10:51 43.65904 7.21077 21 ft 9 kts 45°
2026-05-06 10:51 43.65948 7.21139 21 ft 10 kts 45°
2026-05-06 10:51 43.65998 7.21207 21 ft 10 kts 45°
2026-05-06 10:52 43.66051 7.21279 21 ft 11 kts 45°
2026-05-06 10:52 43.66107 7.21356 21 ft 12 kts 45°
2026-05-06 10:52 43.66166 7.21438 21 ft 12 kts 45°
2026-05-06 10:52 43.66228 7.21523 22 ft 13 kts 45°
2026-05-06 10:53 43.66292 7.21611 21 ft 13 kts 45°
2026-05-06 10:53 43.66358 7.21702 21 ft 14 kts 45°
2026-05-06 10:53 43.66426 7.21795 21 ft 14 kts 45°
2026-05-06 10:53 43.66496 7.21890 21 ft 14 kts 45°
2026-05-06 10:54 43.66553 7.21995 21 ft 13 kts 80°
2026-05-06 10:54 43.66509 7.22089 21 ft 12 kts 136°
2026-05-06 10:54 43.66449 7.22168 22 ft 12 kts 136°
2026-05-06 10:54 43.66389 7.22248 21 ft 13 kts 136°
2026-05-06 10:55 43.66372 7.22351 21 ft 11 kts 70°
2026-05-06 10:55 43.66425 7.22434 21 ft 12 kts 45°
2026-05-06 10:55 43.66486 7.22520 21 ft 13 kts 45°
2026-05-06 10:55 43.66546 7.22600 21 ft 11 kts 44°
2026-05-06 10:56 43.66586 7.22669 21 ft 9 kts 66°
2026-05-06 10:56 43.66567 7.22740 23 ft 8 kts 135°
2026-05-06 10:56 43.66533 7.22780 22 ft 5 kts 140°
2026-05-06 10:56 43.66510 7.22773 22 ft 3 kts 211°
2026-05-06 10:57 43.66491 7.22747 22 ft 5 kts 224°
2026-05-06 10:57 43.66372 7.22584 22 ft 55 kts 225°
2026-05-06 10:57 43.65947 7.22001 23 ft 116 kts 225°
2026-05-06 10:57 43.65249 7.21043 38 ft 163 kts 222°
2026-05-06 10:58 43.64445 7.19943 681 ft 161 kts 224°
2026-05-06 10:58 43.63650 7.18852 1322 ft 164 kts 224°
2026-05-06 10:58 43.62821 7.17716 1726 ft 171 kts 223°
2026-05-06 10:58 43.61967 7.16559 2165 ft 177 kts 224°
2026-05-06 10:59 43.60971 7.15556 2644 ft 180 kts 200°
2026-05-06 10:59 43.59713 7.15426 3080 ft 187 kts 167°
2026-05-06 10:59 43.58518 7.16188 3500 ft 195 kts 153°
2026-05-06 10:59 43.57298 7.17146 3833 ft 206 kts 152°
2026-05-06 11:00 43.56080 7.18216 4335 ft 210 kts 139°
2026-05-06 11:00 43.55258 7.19887 4814 ft 217 kts 114°
2026-05-06 11:00 43.54854 7.22014 4980 ft 242 kts 103°
2026-05-06 11:00 43.54446 7.24380 5183 ft 265 kts 105°
2026-05-06 11:01 43.53961 7.26910 5558 ft 279 kts 106°
2026-05-06 11:01 43.53692 7.29590 6146 ft 287 kts 91°
2026-05-06 11:01 43.53955 7.32337 6735 ft 292 kts 74°
2026-05-06 11:01 43.54635 7.34993 7337 ft 296 kts 70°
2026-05-06 11:02 43.55353 7.37674 7960 ft 300 kts 70°
2026-05-06 11:02 43.56076 7.40388 8572 ft 304 kts 70°
2026-05-06 11:02 43.57018 7.43004 9172 ft 308 kts 55°
2026-05-06 11:02 43.58337 7.45352 9729 ft 312 kts 50°
2026-05-06 11:03 43.59708 7.47688 9860 ft 315 kts 50°
2026-05-06 11:03 43.61129 7.50120 9980 ft 336 kts 50°
2026-05-06 11:03 43.62638 7.52710 10108 ft 356 kts 50°
2026-05-06 11:03 43.64224 7.55443 10282 ft 372 kts 51°
2026-05-06 11:04 43.65856 7.58264 10750 ft 379 kts 51°
2026-05-06 11:04 43.67510 7.61124 11278 ft 383 kts 51°
2026-05-06 11:04 43.69182 7.64018 11830 ft 387 kts 51°
2026-05-06 11:04 43.70845 7.66907 12370 ft 391 kts 51°
2026-05-06 11:05 43.72546 7.69862 12915 ft 395 kts 51°
2026-05-06 11:05 43.74278 7.72830 13454 ft 399 kts 50°
2026-05-06 11:05 43.76092 7.75765 13976 ft 403 kts 48°
2026-05-06 11:05 43.77990 7.78712 14473 ft 407 kts 47°
2026-05-06 11:06 43.79896 7.81622 14966 ft 410 kts 47°
2026-05-06 11:06 43.81793 7.84520 15450 ft 414 kts 47°
2026-05-06 11:06 43.83727 7.87496 15943 ft 417 kts 48°
2026-05-06 11:06 43.85666 7.90516 16450 ft 421 kts 48°
2026-05-06 11:07 43.87612 7.93573 16939 ft 425 kts 49°
2026-05-06 11:07 43.89566 7.96660 17424 ft 428 kts 49°
2026-05-06 11:07 43.91538 7.99784 17888 ft 432 kts 49°
2026-05-06 11:07 43.93526 8.02935 18277 ft 436 kts 49°
2026-05-06 11:08 43.95531 8.06113 18705 ft 439 kts 49°
2026-05-06 11:08 43.97545 8.09306 19158 ft 441 kts 49°
2026-05-06 11:08 43.99572 8.12518 19592 ft 444 kts 49°
2026-05-06 11:08 44.01616 8.15760 20018 ft 447 kts 49°
2026-05-06 11:09 44.03667 8.19024 20444 ft 450 kts 50°
2026-05-06 11:09 44.05496 8.22565 20834 ft 452 kts 60°
2026-05-06 11:09 44.06899 8.26481 21224 ft 454 kts 69°
2026-05-06 11:09 44.08071 8.30572 21621 ft 457 kts 69°
2026-05-06 11:10 44.09254 8.34686 22001 ft 459 kts 69°
2026-05-06 11:10 44.10447 8.38823 22388 ft 462 kts 69°
2026-05-06 11:10 44.11609 8.42843 22748 ft 465 kts 69°
2026-05-06 11:10 44.12819 8.47032 23128 ft 467 kts 69°
2026-05-06 11:11 44.14030 8.51239 23481 ft 470 kts 69°
2026-05-06 11:11 44.15246 8.55472 23800 ft 472 kts 69°
2026-05-06 11:11 44.16450 8.59672 24100 ft 475 kts 70°
2026-05-06 11:11 44.17673 8.63956 24401 ft 477 kts 70°
2026-05-06 11:12 44.18935 8.68251 24694 ft 480 kts 65°
2026-05-06 11:12 44.20564 8.72322 24986 ft 483 kts 56°
2026-05-06 11:12 44.22626 8.76025 25260 ft 485 kts 46°
2026-05-06 11:12 44.25000 8.79385 25542 ft 487 kts 44°
2026-05-06 11:13 44.27407 8.82738 25837 ft 490 kts 44°
2026-05-06 11:13 44.29826 8.86116 26109 ft 492 kts 44°
2026-05-06 11:13 44.32251 8.89513 26383 ft 495 kts 44°
2026-05-06 11:13 44.34681 8.92929 26656 ft 497 kts 44°
2026-05-06 11:14 44.37118 8.96364 26925 ft 499 kts 44°
2026-05-06 11:14 44.39564 8.99815 27193 ft 501 kts 44°
2026-05-06 11:14 44.42024 9.03288 27459 ft 503 kts 44°
2026-05-06 11:14 44.44492 9.06772 27732 ft 505 kts 44°
2026-05-06 11:15 44.46972 9.10279 27996 ft 507 kts 44°
2026-05-06 11:15 44.49457 9.13796 28273 ft 509 kts 44°
2026-05-06 11:15 44.51108 9.16135 28451 ft 511 kts 44°
2026-05-06 11:15 44.54465 9.20895 28817 ft 514 kts 44°
2026-05-06 11:16 44.56937 9.24405 29167 ft 513 kts 44°
2026-05-06 11:16 44.59437 9.27953 29575 ft 511 kts 44°
2026-05-06 11:16 44.61937 9.31507 29933 ft 511 kts 44°
2026-05-06 11:16 44.64425 9.35056 30241 ft 511 kts 44°
2026-05-06 11:17 44.66923 9.38623 30528 ft 511 kts 44°
2026-05-06 11:17 44.69412 9.42184 30838 ft 510 kts 44°
2026-05-06 11:17 44.71066 9.44553 31044 ft 510 kts 45°
2026-05-06 11:18 44.76298 9.52061 31668 ft 509 kts 44°
2026-05-06 11:18 44.78775 9.55625 31971 ft 509 kts 44°
2026-05-06 11:18 44.81247 9.59183 32259 ft 509 kts 45°
2026-05-06 11:18 44.83727 9.62756 32566 ft 509 kts 45°
2026-05-06 11:19 44.86199 9.66320 32871 ft 508 kts 45°
2026-05-06 11:19 44.88668 9.69879 33159 ft 507 kts 45°
2026-05-06 11:19 44.91133 9.73441 33443 ft 507 kts 45°
2026-05-06 11:19 44.93592 9.77004 33711 ft 506 kts 45°
2026-05-06 11:20 44.96047 9.80568 33850 ft 507 kts 45°
2026-05-06 11:20 45.00951 9.87699 33867 ft 505 kts 45°
2026-05-06 11:21 45.05846 9.94821 33864 ft 505 kts 45°
2026-05-06 11:21 45.10701 10.01921 33879 ft 505 kts 45°
2026-05-06 11:22 45.15577 10.09070 33873 ft 504 kts 45°
2026-05-06 11:22 45.20447 10.16217 33893 ft 504 kts 45°
2026-05-06 11:23 45.25320 10.23388 33909 ft 505 kts 45°
2026-05-06 11:23 45.30193 10.30584 33910 ft 505 kts 45°
2026-05-06 11:24 45.35055 10.37782 33904 ft 505 kts 45°
2026-05-06 11:24 45.39917 10.44996 33903 ft 505 kts 45°
2026-05-06 11:25 45.44781 10.52222 33918 ft 506 kts 45°
2026-05-06 11:25 45.49646 10.59464 33918 ft 505 kts 45°
2026-05-06 11:26 45.54497 10.66726 33931 ft 505 kts 46°
2026-05-06 11:26 45.59309 10.73956 33931 ft 505 kts 46°
2026-05-06 11:27 45.64107 10.81185 33934 ft 505 kts 46°
2026-05-06 11:27 45.68907 10.88513 33924 ft 505 kts 47°
2026-05-06 11:28 45.73676 10.95971 33926 ft 505 kts 47°
2026-05-06 11:28 45.78377 11.03360 33930 ft 505 kts 47°
2026-05-06 11:29 45.83169 11.10807 33935 ft 505 kts 46°
2026-05-06 11:29 45.88104 11.17853 33932 ft 504 kts 43°
2026-05-06 11:30 45.93193 11.24780 33933 ft 504 kts 43°
2026-05-06 11:30 45.98243 11.31765 33935 ft 504 kts 44°
2026-05-06 11:31 46.03239 11.38821 33934 ft 503 kts 42°
2026-05-06 11:31 46.08746 11.45022 33937 ft 502 kts 35°
2026-05-06 11:32 46.14363 11.50999 33935 ft 502 kts 35°
2026-05-06 11:32 46.19987 11.56997 33925 ft 502 kts 36°
2026-05-06 11:33 46.25601 11.63015 33921 ft 503 kts 36°
2026-05-06 11:33 46.31219 11.69056 33924 ft 503 kts 36°
2026-05-06 11:34 46.36832 11.75100 33918 ft 503 kts 35°
2026-05-06 11:34 46.42469 11.81239 33906 ft 516 kts 39°
2026-05-06 11:35 46.47812 11.88287 33910 ft 521 kts 42°
2026-05-06 11:35 46.53137 11.95425 33899 ft 521 kts 42°
2026-05-06 11:36 46.58448 12.02573 33916 ft 520 kts 42°
2026-05-06 11:36 46.63762 12.09726 33928 ft 520 kts 42°
2026-05-06 11:37 46.69070 12.16879 33953 ft 520 kts 42°
2026-05-06 11:37 46.74377 12.24057 33953 ft 521 kts 42°
2026-05-06 11:38 46.79681 12.31256 33943 ft 520 kts 42°
2026-05-06 11:38 46.84951 12.38420 33941 ft 521 kts 42°
2026-05-06 11:39 46.90244 12.45637 33926 ft 520 kts 42°
2026-05-06 11:39 46.95528 12.52870 33898 ft 520 kts 42°
2026-05-06 11:40 47.00814 12.60113 33890 ft 521 kts 42°
2026-05-06 11:40 47.06089 12.67367 33877 ft 520 kts 41°
2026-05-06 11:41 47.11361 12.74633 33870 ft 519 kts 41°
2026-05-06 11:41 47.16614 12.81906 33870 ft 519 kts 42°
2026-05-06 11:42 47.21863 12.89203 33866 ft 519 kts 41°
2026-05-06 11:42 47.27097 12.96498 33847 ft 518 kts 41°
2026-05-06 11:43 47.32336 13.03808 33840 ft 519 kts 42°
2026-05-06 11:43 47.37580 13.11142 33818 ft 519 kts 42°
2026-05-06 11:44 47.45401 13.22122 33821 ft 520 kts 42°
2026-05-06 11:44 47.50672 13.29436 33823 ft 519 kts 37°
2026-05-06 11:45 47.56702 13.35063 33812 ft 508 kts 19°
2026-05-06 11:45 47.63278 13.38773 33811 ft 505 kts 15°
2026-05-06 11:46 47.69875 13.42408 33807 ft 505 kts 15°
2026-05-06 11:46 47.76467 13.46071 33809 ft 506 kts 15°
2026-05-06 11:47 47.83066 13.49753 33809 ft 506 kts 15°
2026-05-06 11:47 47.89672 13.53422 33810 ft 506 kts 15°
2026-05-06 11:48 47.96236 13.57071 33814 ft 507 kts 15°
2026-05-06 11:48 48.02849 13.60762 33812 ft 507 kts 16°
2026-05-06 11:49 48.09461 13.64474 33818 ft 507 kts 16°
2026-05-06 11:49 48.16061 13.68188 33827 ft 506 kts 16°
2026-05-06 11:50 48.22651 13.71907 33830 ft 505 kts 16°
2026-05-06 11:50 48.29210 13.75609 33837 ft 503 kts 16°
2026-05-06 11:51 48.35753 13.79316 33838 ft 502 kts 16°
2026-05-06 11:51 48.41174 13.82398 33836 ft 501 kts 16°
2026-05-06 11:52 48.47680 13.86099 33832 ft 499 kts 16°
2026-05-06 11:52 48.54171 13.89803 33838 ft 498 kts 17°
2026-05-06 11:53 48.60642 13.93511 33842 ft 497 kts 17°
2026-05-06 11:53 48.67112 13.97231 33838 ft 497 kts 17°
2026-05-06 11:54 48.73607 14.00753 33834 ft 495 kts 13°
2026-05-06 11:54 48.80186 14.03797 33840 ft 494 kts 12°
2026-05-06 11:55 48.86775 14.06743 33833 ft 494 kts 12°
2026-05-06 11:55 48.93300 14.09813 33830 ft 495 kts 13°
2026-05-06 11:56 48.99860 14.13000 33829 ft 495 kts 13°
2026-05-06 11:56 49.06419 14.16180 33832 ft 495 kts 13°
2026-05-06 11:57 49.12989 14.19340 33835 ft 495 kts 13°
2026-05-06 11:57 49.19558 14.22504 33840 ft 495 kts 13°
2026-05-06 11:58 49.26128 14.25677 33840 ft 495 kts 13°
2026-05-06 11:58 49.32686 14.28857 33839 ft 494 kts 13°
2026-05-06 11:59 49.39248 14.32055 33845 ft 495 kts 13°
2026-05-06 11:59 49.45808 14.35258 33844 ft 495 kts 13°
2026-05-06 12:00 49.52367 14.38481 33846 ft 495 kts 14°
2026-05-06 12:00 49.58928 14.41709 33853 ft 495 kts 14°
2026-05-06 12:01 49.65446 14.44910 33863 ft 495 kts 14°
2026-05-06 12:01 49.72003 14.48148 33861 ft 494 kts 14°
2026-05-06 12:02 49.78545 14.51388 33855 ft 493 kts 14°
2026-05-06 12:02 49.85071 14.54623 33849 ft 492 kts 14°
2026-05-06 12:03 49.91147 14.57645 33836 ft 491 kts 14°
2026-05-06 12:03 49.97653 14.60901 33834 ft 491 kts 14°
2026-05-06 12:04 50.04160 14.64158 33827 ft 491 kts 14°
2026-05-06 12:04 50.10667 14.67427 33829 ft 492 kts 14°
2026-05-06 12:05 50.17177 14.70713 33829 ft 492 kts 14°
2026-05-06 12:05 50.23699 14.73991 33829 ft 492 kts 14°
2026-05-06 12:06 50.30216 14.77289 33830 ft 492 kts 14°
2026-05-06 12:06 50.36681 14.80589 33829 ft 492 kts 14°
2026-05-06 12:07 50.43187 14.83899 33823 ft 492 kts 14°
2026-05-06 12:07 50.49694 14.87201 33818 ft 491 kts 13°
2026-05-06 12:08 50.56253 14.90126 33816 ft 490 kts 11°
2026-05-06 12:08 50.62857 14.92815 33815 ft 490 kts 11°
2026-05-06 12:09 50.69442 14.95551 33813 ft 490 kts 11°
2026-05-06 12:09 50.76022 14.98402 33811 ft 490 kts 12°
2026-05-06 12:10 50.82594 15.01275 33806 ft 490 kts 12°
2026-05-06 12:10 50.89175 15.04141 33801 ft 490 kts 12°
2026-05-06 12:11 50.95759 15.07008 33792 ft 491 kts 12°
2026-05-06 12:11 51.02354 15.09885 33787 ft 492 kts 11°
2026-05-06 12:12 51.08938 15.12562 33790 ft 492 kts
2026-05-06 12:12 51.15600 15.15109 33785 ft 493 kts
2026-05-06 12:13 51.22270 15.17680 33790 ft 494 kts 10°
2026-05-06 12:13 51.28944 15.20320 33792 ft 494 kts 10°
2026-05-06 12:14 51.35614 15.22997 33798 ft 494 kts 10°
2026-05-06 12:14 51.42288 15.25672 33797 ft 494 kts 10°
2026-05-06 12:15 51.48955 15.28349 33801 ft 493 kts 10°
2026-05-06 12:15 51.55611 15.31013 33801 ft 493 kts 10°
2026-05-06 12:16 51.62212 15.33667 33800 ft 492 kts 10°
2026-05-06 12:16 51.68845 15.36349 33798 ft 491 kts 10°
2026-05-06 12:17 51.75467 15.39031 33799 ft 490 kts 10°
2026-05-06 12:17 51.82082 15.41716 33802 ft 489 kts 10°
2026-05-06 12:18 51.88681 15.44414 33803 ft 488 kts 10°
2026-05-06 12:18 51.95259 15.47116 33798 ft 487 kts 10°
2026-05-06 12:19 52.01826 15.49820 33799 ft 487 kts 11°
2026-05-06 12:19 52.08390 15.52513 33790 ft 487 kts 11°
2026-05-06 12:20 52.14953 15.55214 33785 ft 486 kts 11°
2026-05-06 12:20 52.21506 15.57931 33784 ft 486 kts 11°
2026-05-06 12:21 52.28060 15.60657 33781 ft 486 kts 11°
2026-05-06 12:21 52.34615 15.63386 33782 ft 486 kts 11°
2026-05-06 12:22 52.41129 15.66105 33782 ft 487 kts 11°
2026-05-06 12:22 52.47701 15.68859 33789 ft 488 kts 11°
2026-05-06 12:23 52.53764 15.71401 33801 ft 488 kts 11°
2026-05-06 12:23 52.60350 15.74165 33804 ft 489 kts 11°
2026-05-06 12:24 52.66943 15.76966 33795 ft 489 kts 11°
2026-05-06 12:24 52.73532 15.79776 33798 ft 489 kts 11°
2026-05-06 12:25 52.80085 15.82560 33802 ft 489 kts 11°
2026-05-06 12:25 52.86539 15.86294 33800 ft 492 kts 18°
2026-05-06 12:26 52.92929 15.90341 33801 ft 492 kts 18°
2026-05-06 12:26 52.99318 15.94387 33801 ft 491 kts 18°
2026-05-06 12:27 53.05701 15.98437 33807 ft 491 kts 18°
2026-05-06 12:27 53.12077 16.02502 33807 ft 490 kts 18°
2026-05-06 12:28 53.18443 16.06575 33806 ft 490 kts 18°
2026-05-06 12:28 53.24798 16.10645 33808 ft 489 kts 18°
2026-05-06 12:29 53.31142 16.14718 33804 ft 488 kts 18°
2026-05-06 12:29 53.37483 16.18812 33801 ft 489 kts 18°
2026-05-06 12:30 53.43792 16.22910 33801 ft 489 kts 19°
2026-05-06 12:30 53.50128 16.27028 33808 ft 488 kts 19°
2026-05-06 12:31 53.56461 16.31161 33811 ft 488 kts 19°
2026-05-06 12:31 53.62785 16.35302 33816 ft 488 kts 19°
2026-05-06 12:32 53.69109 16.39453 33819 ft 487 kts 19°
2026-05-06 12:32 53.75423 16.43608 33821 ft 487 kts 19°
2026-05-06 12:33 53.81736 16.47783 33826 ft 487 kts 19°
2026-05-06 12:33 53.88030 16.52035 33818 ft 488 kts 25°
2026-05-06 12:34 53.90908 16.55074 33817 ft 488 kts 39°
2026-05-06 12:34 53.93322 16.59102 33812 ft 487 kts 52°
2026-05-06 12:34 53.97092 16.68645 33806 ft 487 kts 58°
2026-05-06 12:35 54.00789 16.78293 33806 ft 488 kts 58°
2026-05-06 12:35 54.04492 16.87975 33820 ft 488 kts 58°
2026-05-06 12:36 54.08154 16.97623 33821 ft 488 kts 61°
2026-05-06 12:36 54.09546 17.02838 33809 ft 483 kts 76°
2026-05-06 12:36 54.10147 17.08409 33820 ft 477 kts 88°
2026-05-06 12:37 54.10770 17.19675 33808 ft 478 kts 88°
2026-05-06 12:37 54.11396 17.30957 33810 ft 479 kts 88°
2026-05-06 12:38 54.12016 17.42261 33806 ft 479 kts 88°
2026-05-06 12:38 54.12653 17.53555 33807 ft 480 kts 85°
2026-05-06 12:39 54.13790 17.64804 33810 ft 482 kts 82°
2026-05-06 12:39 54.14955 17.74110 33814 ft 483 kts 81°
2026-05-06 12:40 54.16609 17.87193 33822 ft 483 kts 82°
2026-05-06 12:40 54.17922 17.98410 33826 ft 482 kts 82°
2026-05-06 12:41 54.19542 18.09516 33827 ft 487 kts 64°
2026-05-06 12:41 54.21492 18.14233 33829 ft 489 kts 46°
2026-05-06 12:41 54.24073 18.18012 33821 ft 489 kts 33°
2026-05-06 12:42 54.30249 18.22463 33808 ft 484 kts
2026-05-06 12:42 54.32500 18.22686 33809 ft 477 kts 351°
2026-05-06 12:42 54.36604 18.20611 33811 ft 459 kts 323°
2026-05-06 12:43 54.38990 18.17157 33808 ft 443 kts 302°
2026-05-06 12:43 54.40081 18.14176 33803 ft 433 kts 287°
2026-05-06 12:43 54.40814 18.09283 33813 ft 421 kts 271°
2026-05-06 12:43 54.41098 18.04337 33807 ft 423 kts 271°
2026-05-06 12:44 54.41721 17.94256 33800 ft 429 kts 278°
2026-05-06 12:44 54.42756 17.89421 33831 ft 437 kts 298°
2026-05-06 12:44 54.44746 17.85528 33836 ft 435 kts 320°
2026-05-06 12:45 54.47418 17.83197 33840 ft 431 kts 342°
2026-05-06 12:45 54.50386 17.82755 33849 ft 433 kts
2026-05-06 12:45 54.55621 17.87463 33849 ft 433 kts 53°
2026-05-06 12:46 54.57104 17.91907 33854 ft 426 kts 77°
2026-05-06 12:46 54.57501 17.96873 33850 ft 415 kts 101°
2026-05-06 12:46 54.56782 18.01566 33850 ft 400 kts 124°
2026-05-06 12:46 54.55167 18.05371 33856 ft 393 kts 136°
2026-05-06 12:47 54.53355 18.08914 33841 ft 394 kts 137°
2026-05-06 12:47 54.49718 18.16009 33841 ft 395 kts 137°
2026-05-06 12:48 54.46076 18.23101 33835 ft 396 kts 137°
2026-05-06 12:48 54.42457 18.30141 33837 ft 396 kts 136°
2026-05-06 12:48 54.40862 18.34031 33832 ft 405 kts 121°
2026-05-06 12:49 54.39798 18.38623 33840 ft 410 kts 116°
2026-05-06 12:49 54.37659 18.47594 33837 ft 408 kts 119°
2026-05-06 12:50 54.35368 18.56502 33832 ft 408 kts 120°
2026-05-06 12:50 54.33103 18.65435 33834 ft 409 kts 119°
2026-05-06 12:51 54.30876 18.74402 33832 ft 409 kts 119°
2026-05-06 12:51 54.28656 18.83363 33828 ft 409 kts 119°
2026-05-06 12:52 54.26416 18.92307 33820 ft 408 kts 120°
2026-05-06 12:52 54.24152 19.01215 33813 ft 409 kts 120°
2026-05-06 12:53 54.21893 19.10130 33806 ft 408 kts 120°
2026-05-06 12:53 54.19644 19.19058 33803 ft 408 kts 120°
2026-05-06 12:54 54.17407 19.27977 33804 ft 409 kts 120°
2026-05-06 12:54 54.15170 19.36901 33814 ft 409 kts 120°
2026-05-06 12:55 54.12933 19.45827 33795 ft 410 kts 120°
2026-05-06 12:55 54.10695 19.54753 33803 ft 410 kts 120°
2026-05-06 12:56 54.08471 19.63626 33791 ft 410 kts 120°
2026-05-06 12:56 54.06236 19.72555 33774 ft 410 kts 120°
2026-05-06 12:57 54.03999 19.81496 33789 ft 411 kts 120°
2026-05-06 12:57 54.01756 19.90452 33781 ft 411 kts 120°
2026-05-06 12:58 53.99516 19.99396 33779 ft 411 kts 120°
2026-05-06 12:58 53.97279 20.08335 33769 ft 411 kts 120°
2026-05-06 12:59 53.95049 20.17257 33766 ft 411 kts 120°